Weather History for Joplin, MO

Change the Weather History Date:

Saturday, June 7, 2014

  Actual Average Record
Temperature  
Mean Temperature 74 °F 73 °F  
Max Temperature 82 °F 84 °F 95 °F (1972)
Min Temperature 65 °F 63 °F 49 °F (1983)
Degree Days  
Heating Degree Days 0 0  
Month to date heating degree days 0 2  
Since 1 June heating degree days 0 2  
Since 1 July heating degree days 4881 4071  
Cooling Degree Days 9 8  
Month to date cooling degree days 74 53  
Year to date cooling degree days 287 233  
Since 1 June cooling degree days 74 53  
Growing Degree Days 24 (Base 50)    
Moisture  
Dew Point 65 °F    
Average Humidity 76    
Maximum Humidity 97    
Minimum Humidity 54    
Precipitation  
Precipitation 0.15 in 0.20 in 2.47 in (1966)
Month to date precipitation 2.45 1.43  
Year to date precipitation 11.20 19.38  
Sea Level Pressure  
Sea Level Pressure 29.86 in    
Wind  
Wind Speed 12 mph (SW)    
Max Wind Speed 23 mph    
Max Gust Speed 29 mph    
Visibility 10 miles    
Events Rain , Thunderstorm    
T = Trace of Precipitation, MM = Missing Value Source: NWS Daily Summary

Daily Weather History Graph

Daily Weather History Graph

Search for Another Location

Airport:

Trip Planner

Search our weather history database for the weather conditions in past years. The results will help you decide how hot, cold, wet, or windy it might be!

Date:

Astronomy

Jun. 07, 2014 Rise Set
Actual Time 5:57 AM CDT 8:36 PM CDT
Civil Twilight 5:27 AM CDT 9:06 PM CDT
Nautical Twilight 4:49 AM CDT 9:44 PM CDT
Astronomical Twilight 4:06 AM CDT 10:27 PM CDT
Moon 3:01 PM CDT (6/7) 2:12 AM CDT (6/7)
Length of Visible Light 15h 39m
Length of Day
14h 38m
Waxing Gibbous, 68% of the Moon is Illuminated
Jun 7
Waxing Gibbous
Jun 12
Full
Jun 19
Last Quarter
Jun 27
New
Jul 5
First Quarter

Hourly Weather History & Observations

Time (CDT) Temp. Heat Index Dew Point Humidity Pressure Visibility Wind Dir Wind Speed Gust Speed Precip Events Conditions
12:53 AM 69.1 °F - 66.9 °F 93% 29.90 in 10.0 mi SSE 6.9 mph - N/A   Clear
1:53 AM 70.0 °F - 68.0 °F 93% 29.90 in 10.0 mi SSE 10.4 mph - N/A   Scattered Clouds
2:53 AM 71.1 °F - 66.9 °F 87% 29.86 in 10.0 mi SSE 12.7 mph - N/A   Clear
3:53 AM 71.6 °F - 66.2 °F 83% 29.84 in 10.0 mi SSE 11.5 mph - N/A Thunderstorm Thunderstorm
4:09 AM 69.1 °F - 68.0 °F 96% 29.85 in 2.5 mi SSE 10.4 mph - 0.11 in Rain , Thunderstorm Light Thunderstorms and Rain
4:16 AM 69.1 °F - 68.0 °F 96% 29.85 in 10.0 mi SSE 10.4 mph - 0.11 in Rain , Thunderstorm Light Thunderstorms and Rain
4:30 AM 70.0 °F - 68.0 °F 93% 29.84 in 10.0 mi SE 10.4 mph - 0.11 in Thunderstorm Overcast
4:53 AM 70.0 °F - 66.9 °F 90% 29.80 in 10.0 mi SSE 13.8 mph - 0.11 in Thunderstorm Mostly Cloudy
5:07 AM 70.0 °F - 68.0 °F 93% 29.85 in 5.0 mi SSW 21.9 mph 26.5 mph 0.02 in Rain , Thunderstorm Rain
5:32 AM 69.1 °F - 64.9 °F 87% 29.76 in 10.0 mi SE 15.0 mph - 0.04 in Rain , Thunderstorm Light Rain
5:44 AM 68.0 °F - 64.9 °F 90% 29.75 in 10.0 mi SE 12.7 mph 18.4 mph 0.04 in   Partly Cloudy
5:53 AM 68.0 °F - 64.9 °F 90% 29.72 in 10.0 mi SE 9.2 mph 18.4 mph 0.04 in   Mostly Cloudy
6:53 AM 66.2 °F - 64.4 °F 94% 29.86 in 10.0 mi WNW 9.2 mph - N/A   Overcast
7:53 AM 68.0 °F - 64.9 °F 90% 29.85 in 10.0 mi SW 11.5 mph - N/A   Scattered Clouds
8:08 AM 68.0 °F - 64.9 °F 90% 29.89 in 10.0 mi SW 11.5 mph - N/A   Mostly Cloudy
8:53 AM 68.0 °F - 64.9 °F 90% 29.86 in 10.0 mi SW 18.4 mph - N/A   Mostly Cloudy
9:26 AM 71.1 °F - 64.9 °F 81% 29.88 in 10.0 mi SW 15.0 mph 25.3 mph N/A   Partly Cloudy
9:53 AM 73.4 °F - 64.4 °F 73% 29.88 in 10.0 mi SW 15.0 mph 25.3 mph N/A   Clear
10:53 AM 75.9 °F - 66.0 °F 71% 29.85 in 10.0 mi WSW 16.1 mph 24.2 mph N/A   Partly Cloudy
11:53 AM 77.0 °F - 64.9 °F 66% 29.87 in 10.0 mi WSW 18.4 mph - N/A   Clear
12:53 PM 77.0 °F - 64.9 °F 66% 29.86 in 10.0 mi West 16.1 mph 25.3 mph N/A   Mostly Cloudy
1:53 PM 79.0 °F - 64.9 °F 62% 29.86 in 10.0 mi West 20.7 mph - N/A   Mostly Cloudy
2:53 PM 80.1 °F 82.1 °F 66.0 °F 62% 29.86 in 10.0 mi West 15.0 mph - N/A   Scattered Clouds
3:53 PM 81.0 °F 83.3 °F 66.9 °F 62% 29.86 in 10.0 mi West 10.4 mph - N/A   Mostly Cloudy
4:53 PM 81.0 °F 82.7 °F 64.9 °F 58% 29.85 in 10.0 mi West 19.6 mph - N/A   Mostly Cloudy
5:53 PM 81.0 °F 82.2 °F 63.0 °F 54% 29.86 in 10.0 mi WNW 16.1 mph - N/A   Scattered Clouds
6:53 PM 80.1 °F 81.9 °F 64.9 °F 60% 29.87 in 10.0 mi NW 8.1 mph - N/A   Scattered Clouds
7:53 PM 75.9 °F - 64.9 °F 69% 29.89 in 10.0 mi NW 8.1 mph - N/A   Clear
8:53 PM 70.0 °F - 64.0 °F 81% 29.90 in 10.0 mi NNW 4.6 mph - N/A   Clear
9:53 PM 69.1 °F - 63.0 °F 81% 29.92 in 10.0 mi North 4.6 mph - N/A   Clear
10:53 PM 66.9 °F - 62.1 °F 84% 29.95 in 10.0 mi North 4.6 mph - N/A   Clear
11:53 PM 66.9 °F - 62.1 °F 84% 29.94 in 10.0 mi NNE 5.8 mph - N/A   Clear